Location: Salisbury
(38.3600°N, 75.6000°W)
Time: 08:09:34
(UTC-04:00)

Daily predictions for brighter satellites

Satellite Brightness Start Highest point End
(mag) Time Altitude Azimuth Time Altitude Azimuth Time Altitude Azimuth
Cosmos 2227 Rocket 4.0 21:00:02 10° ESE 21:01:28 11° E 21:02:55 10° E
ALOS 3.1 21:01:47 10° S 21:06:19 51° W 21:10:54 10° NNW
ERS-1 Rocket 3.0 21:01:23 10° SSE 21:06:22 69° ENE 21:11:24 10° N
OAO 2 Rocket 3.9 21:02:48 10° SW 21:07:46 41° SSE 21:12:45 10° E
Cosmos 1500 Rocket 4.0 21:06:15 10° SSW 21:10:35 65° W 21:15:00 10° N
Envisat 3.5 21:06:04 10° SE 21:10:52 45° ENE 21:15:42 10° N
ERBS 3.9 21:09:16 10° SSE 21:11:33 17° ESE 21:13:51 10° E
Cosmos 1300 4.2 21:08:55 10° NNE 21:11:52 21° ENE 21:14:43 10° SE
Tiangong 1 1.0 21:11:24 10° WSW 21:14:31 90° S 21:17:37 10° ENE
NOSS 3-1 (C) 3.4 21:10:37 10° SSW 21:16:17 60° ESE 21:22:31 10° NE
Cosmos 2333 Rocket 4.0 21:16:57 10° N 21:20:57 19° NE 21:24:56 10° E
Cosmos 2151 2.9 21:17:39 10° S 21:21:49 71° E 21:26:01 10° NNE
Delta 2 Rocket 3.1 21:21:34 10° W 21:25:17 55° S 21:28:16 13° ESE
Cosmos 2058 3.2 21:22:32 10° SSE 21:26:26 45° E 21:30:22 10° NNE
SL-23 DEB 4.2 21:21:05 10° NW 21:26:32 68° NE 21:29:29 14° ESE
Hubble Space Telescope 2.6 21:25:24 10° SSW 21:27:24 13° SSE 21:28:18 13° SSE
Cosmos 2297 Rocket 3.9 21:26:15 12° ESE 21:28:02 13° E 21:30:35 10° ENE
Cosmos 2112 Rocket 4.0 21:23:24 10° NNW 21:28:40 79° ENE 21:33:47 11° SSE
Cosmos 1937 Rocket 4.4 21:24:14 10° SSE 21:28:41 29° E 21:33:07 10° NE
SWAS 4.5 21:28:43 10° NNW 21:33:04 86° WSW 21:36:53 13° SSE
Cosmos 2219 Rocket 3.4 21:28:19 10° N 21:33:07 29° ENE 21:37:10 13° ESE
COSMOS 2428 3.0 21:27:42 10° NNW 21:33:18 57° ENE 21:37:58 15° SE
Nimbus 7 Rocket 4.3 21:28:43 10° NNE 21:34:35 77° ESE 21:40:27 10° S
Cosmos 1437 Rocket 4.3 21:33:57 10° NNW 21:37:28 34° W 21:40:59 10° SSW
deb Chang Zheng 4 3.9 21:33:32 10° N 21:37:51 69° WNW 21:42:10 10° SSW
Cosmos 2298 Rocket 4.0 21:34:38 10° S 21:39:52 64° ESE 21:45:08 10° NNE
Cosmos 304 Rocket 4.3 21:37:18 10° NNW 21:42:02 57° WSW 21:46:42 10° S
Cosmos 1726 2.9 21:38:31 10° N 21:42:02 36° E 21:44:08 20° SE
Sich 1 3.5 21:40:21 14° SSE 21:43:57 44° E 21:48:07 10° NNE
PSLV R/B 3.1 21:44:56 21° SSE 21:46:47 66° ENE 21:49:49 10° N
Cosmos 1939 Rocket 3.4 21:43:51 10° S 21:47:42 56° W 21:51:32 10° NNW
Cosmos 1151 Rocket 4.1 21:45:17 10° NNW 21:49:24 44° W 21:53:31 10° SSW
Cosmos 1633 Rocket 3.3 21:46:59 15° SSE 21:50:20 49° E 21:54:34 10° NNE
CZ-4B R/B 3.8 21:45:50 10° NNE 21:50:57 50° E 21:55:23 13° S
Cosmos 2242 Rocket 4.3 21:47:54 10° N 21:52:06 38° ENE 21:54:28 22° SE
Cosmos 2237 4.2 21:49:06 10° NNW 21:54:51 89° WSW 21:59:09 18° SSE
SPOT 5 2.8 21:51:24 15° SSE 21:55:11 86° WSW 22:00:04 10° NNW
Meteor 1-4 Rocket 3.3 21:51:56 10° N 21:55:25 36° ENE 21:56:51 26° ESE
DELTA 2 R/B (1) 4.3 21:50:53 10° W 21:56:03 40° SSW 21:59:14 21° SSE
USA 245 2.9 21:59:33 32° E 21:59:40 32° ENE 22:01:46 10° N
Cosmos 2219 4.2 21:56:20 10° SW 22:01:54 51° WNW 22:07:31 10° NNE
Cosmos 292 Rocket 4.0 22:00:56 10° N 22:05:37 57° ENE 22:08:03 27° SE
MetOp-B 4.1 22:03:02 18° SSE 22:07:05 86° WSW 22:12:29 10° NNW
Cosmos 1805 Rocket 4.1 22:02:56 10° SSW 22:07:19 60° W 22:11:43 10° N
Cosmos 2237 Rocket 3.1 22:02:33 10° N 22:07:48 36° ENE 22:10:50 22° ESE
H-2A R/B 3.3 22:05:52 20° ESE 22:08:28 29° ENE 22:13:07 10° N
Cosmos 2333 4.2 22:05:37 10° NNW 22:11:23 88° WSW 22:14:59 24° SSE
Cosmos 2082 4.0 22:07:50 17° S 22:12:02 48° ESE 22:17:31 10° NE
DELTA 2 R/B(2) 3.9 22:12:40 10° W 22:14:24 57° N 22:14:48 46° NE
Cosmos 1898 Rocket 3.7 22:09:34 10° SSW 22:14:43 71° WNW 22:19:56 10° NNE
Cosmos 1271 Rocket 2.7 22:11:49 10° N 22:15:39 64° E 22:17:01 37° SSE
Cosmos 2360 Rocket 3.8 22:12:35 10° NW 22:17:18 28° WSW 22:22:00 10° SSW
Cosmos 220 Rocket 3.9 22:13:45 12° SSW 22:17:44 87° ESE 22:22:12 10° NNE
CZ-4C R/B 3.8 22:18:52 32° E 22:19:24 34° ENE 22:22:35 10° N
Iridium 2 3.8 22:19:28 39° SE 22:20:35 56° E 22:24:21 10° NNE
SPOT 1/Viking Rocket 3.5 22:17:51 25° SSE 22:20:52 89° E 22:26:04 10° NNW
NOAA 11 4.2 22:18:01 27° SSE 22:21:01 71° ENE 22:26:29 10° N
NOSS 3-1 (A) 3.9 22:15:38 10° SW 22:21:26 61° NW 22:27:52 10° NNE
Cosmos 1626 2.8 22:21:47 35° ESE 22:22:03 36° E 22:25:31 10° NNE
Cosmos 1346 3.8 22:22:51 39° ENE 22:22:51 39° ENE 22:25:22 10° NNE
H-2A R/B 4.1 22:20:12 10° SSW 22:23:51 24° W 22:27:32 10° NW
Cosmos 1703 3.1 22:23:38 31° S 22:25:23 88° E 22:29:19 10° N
SL-14 R/B 4.3 22:23:00 11° SSW 22:26:33 45° W 22:30:26 10° N
Cosmos 1707 Rocket 4.5 22:23:42 10° NNW 22:27:52 45° W 22:30:45 19° SSW
YAOGAN 6 3.3 22:27:34 28° SSW 22:29:09 48° W 22:32:39 10° NNW
OTV 4 1.5 22:27:47 10° WSW 22:29:39 34° SW 22:29:39 34° SW
Cosmos 1241 Rocket 4.3 22:24:52 10° SSW 22:31:02 82° ESE 22:37:19 10° NNE
Terra 2.5 22:31:05 31° ESE 22:32:29 39° ENE 22:36:55 10° N
SL-08 RB Rocket 3.6 22:32:55 39° SSE 22:34:35 86° ENE 22:39:06 10° NNW
ATLAS 2AS CENTAUR R/B 2.9 22:36:04 10° SSW 22:43:26 77° ESE 22:51:28 10° NE
Cosmos 1470 Rocket 3.5 22:42:22 39° SSW 22:43:56 84° W 22:48:16 10° N
Nadezhda 1 Rocket 3.9 22:38:30 10° N 22:44:38 80° E 22:47:23 35° SSE
Cosmos 2227 Rocket 2.2 22:39:38 13° SSW 22:44:39 86° WNW 22:50:21 10° NNE
Cosmos 1933 Rocket 3.5 22:43:16 38° S 22:44:56 86° W 22:49:26 10° N
ERBS 3.8 22:44:50 10° WSW 22:48:08 38° NW 22:51:26 10° NNE
SAR-Lupe-2 4.2 22:49:41 42° ENE 22:49:41 42° ENE 22:52:57 10° N
NOSS 0 Rocket 3.9 22:44:44 10° NNW 22:50:54 77° WSW 22:53:28 37° S
Tiangong 1 2.6 22:48:25 10° WNW 22:51:18 35° N 22:52:18 27° NE
OAO 2 Rocket 3.4 22:47:05 10° WSW 22:52:20 61° S 22:53:39 46° SE
ATLAS 3B R/B 3.2 22:49:33 10° NNW 22:56:20 49° NE 22:59:21 30° ESE
Cosmos 1745 Rocket 4.3 22:52:10 19° SSW 22:56:41 64° W 23:02:49 10° N
SL-16 R/B 2.8 22:57:23 10° N 23:02:50 45° ENE 23:04:25 36° ESE
Lacrosse 4 Rocket 2.4 22:58:58 10° N 23:03:06 37° ENE 23:03:42 35° ENE
Cosmos 1709 Rocket 3.9 23:02:51 44° SSE 23:04:42 64° E 23:10:44 10° NNE
DMSP B5D2-2 3.9 22:59:58 10° NNE 23:05:14 84° ESE 23:06:47 47° S
Cosmos 2333 Rocket 2.4 23:00:01 10° NNW 23:05:43 66° WSW 23:07:32 43° S
BREEZE-M TANK 4.5 22:42:10 10° WSW 23:05:59 71° NNW 23:10:33 10° ENE
ARGOS 4.0 23:03:30 26° SSW 23:06:01 42° W 23:11:07 10° NNW
Cosmos 2221 Rocket 4.2 23:04:54 10° N 23:09:16 43° E 23:09:20 43° E
Cosmos 1455 2.5 23:06:14 10° NNW 23:09:58 56° W 23:10:08 55° WSW
Cosmos 2297 Rocket 2.3 23:07:58 25° SSW 23:11:19 75° WNW 23:17:00 10° NNE
COS B Rocket 4.4 23:11:27 10° NNE 23:14:32 35° ENE 23:14:32 35° ENE
Cosmos 1933 3.6 23:11:45 10° N 23:15:26 56° ENE 23:15:26 56° ENE
COSMOS 2455 3.0 23:10:19 10° NNW 23:16:19 66° ENE 23:17:55 48° ESE
Cosmos 2219 Rocket 3.1 23:11:59 10° NW 23:17:07 38° WSW 23:18:54 30° SW
NOSS 2-3 (E) 3.8 23:18:13 63° ESE 23:18:13 63° ESE 23:23:35 10° NE
Cosmos 192 4.4 23:16:11 10° NNW 23:21:03 64° WSW 23:21:44 57° SW
CARTOSAT-1 4.0 23:25:07 49° WSW 23:25:26 50° W 23:29:39 10° NNW
Cosmos 2181 Rocket 4.0 23:31:50 10° N 23:38:17 87° W 23:39:48 56° S
CZ-4C R/B 4.2 23:37:34 10° NNW 23:43:39 30° NE 23:48:28 16° E
H-2A R/B 4.5 23:40:15 10° NE 23:42:10 19° ENE 23:42:10 19° ENE
SeaSat 1 3.4 23:43:30 34° ENE 23:44:13 35° ENE 23:48:41 10° N
Cosmos 2184 Rocket 4.1 23:43:47 53° ESE 23:44:26 55° E 23:50:27 10° NNE
NOSS 2-3 (C) 4.0 23:44:46 62° WSW 23:45:33 77° NW 23:51:08 10° NNE
Cosmos 1269 Rocket 4.1 23:40:51 10° NNW 23:46:06 63° WSW 23:46:29 61° SW
H-2A R/B 3.2 23:46:30 30° WSW 23:47:43 34° W 23:52:38 10° NNW
Cosmos 2237 Rocket 3.4 23:46:50 10° NW 23:51:42 30° WSW 23:52:39 28° WSW
FALCON 9 R/B 3.0 23:33:25 10° W 23:52:31 64° SSW 23:54:02 53° SSE
Meteor 1-26 Rocket 4.1 23:47:02 10° N 23:52:42 87° E 23:53:14 75° SSE
Cosmos 1869 Rocket 4.0 23:53:42 59° WNW 23:53:42 59° WNW 23:57:59 10° N
